Find Starlink 32614

NORAD ID: 62428 Int'l Des: 2024-249 Owner: SPXS Country: US Constellation: starlink operational
LEOCIRCULAR

リアルタイム位置

3D地球を読み込み中...

Starlink 32614について

説明を読み込み中...

次回通過

Passes for default location (London). Set your location on the main map for personalized predictions.

高度履歴

Loading altitude history...

軌道要素

1 62428U 24249V 26124.01726881 .00015479 00000-0 57055-3 0 9992
2 62428 43.0022 9.5405 0001715 282.1313 77.9347 15.27595530 76183
Epoch: May 4, 2026 • Age: 26 hours

現在のステータス

高度 487.0 km
速度 7.63 km/s
衛星直下点 42.29°N, 144.79°W
打ち上げ日 Dec 23, 2024
運用期間 1.3 years
タイプ internet

技術仕様

分類 Payload
質量 730.00 kg
乾燥質量 700.00 kg
総質量 730.00 kg
長さ 0.30 m
直径 4.10 m
スパン 29.00 m
形状 Box + pan
製造者 SPXS
バスタイプ Starlink V2M
フェーズステータス In Orbit
所有者/国 SPXS/US

Most Searched